Weather reports worldwide

Advertisment
Chania/Souda, Greece (16746): temperature & dewpoint: 10.11.2018 12:00:00 - 16.11.2018 12:00:00 (EET)Chania/Souda, Greece (16746): wind speed: 10.11.2018 12:00:00 - 16.11.2018 12:00:00 (EET)Chania/Souda, Greece (16746): wind direction: 10.11.2018 12:00:00 - 16.11.2018 12:00:00 (EET)Chania/Souda, Greece (16746): reduced air pressure: 10.11.2018 12:00:00 - 16.11.2018 12:00:00 (EET)Chania/Souda, Greece (16746): visibility: 10.11.2018 12:00:00 - 16.11.2018 12:00:00 (EET)
Date & Time tt [°C] td [°C] ff [km/h] ff [kn] dd ppp [hPa] vv [km]
16.11.2018 12:00:00 15,0 9,0 9 5 ENE - 10
16.11.2018 11:00:00 15,0 8,3 15 8 ENE 1020,7 10
16.11.2018 10:00:00 15,0 9,0 15 8 ENE - 10
16.11.2018 09:00:00 15,0 9,0 15 8 ENE - 10
16.11.2018 08:00:00 13,2 7,5 8 4 NE 1020,7 10
16.11.2018 07:00:00 13,0 8,0 11 6 NE - 10
16.11.2018 06:00:00 13,0 8,0 13 7 ENE - 10
16.11.2018 05:00:00 13,4 9,1 8 4 ENE 1020,5 10
16.11.2018 04:00:00 14,0 8,0 13 7 NNE - 10
16.11.2018 03:00:00 14,0 9,0 13 7 NE - 10
16.11.2018 02:00:00 13,8 8,7 15 8 ENE 1020,0 10
16.11.2018 01:00:00 14,0 9,0 13 7 ENE - 10
16.11.2018 00:00:00 14,0 8,0 15 8 NE - 10
15.11.2018 23:00:00 14,4 8,9 21 11 NE 1019,8 10
15.11.2018 22:00:00 15,0 8,0 26 14 NE - 10
15.11.2018 21:00:00 14,0 11,0 22 12 NNE - 10
15.11.2018 20:00:00 13,4 10,7 8 4 N 1018,5 10
15.11.2018 19:00:00 14,0 11,0 0 0 N - 10
15.11.2018 18:00:00 15,0 12,0 0 0 N - 10
15.11.2018 17:00:00 15,2 11,5 0 0 N 1018,2 10
15.11.2018 16:00:00 16,0 11,0 11 6 NNE - 10
15.11.2018 15:00:00 16,0 11,0 9 5 NNE - 10
15.11.2018 14:00:00 15,6 10,3 15 8 NE 1018,5 10
15.11.2018 13:00:00 16,0 11,0 9 5 NE - 10
15.11.2018 12:00:00 16,0 10,0 18 10 NE - 10
15.11.2018 11:00:00 15,2 9,9 18 10 NNE 1019,4 10
15.11.2018 10:00:00 15,0 10,0 21 11 NNE - 10
15.11.2018 09:00:00 15,0 10,0 18 10 NNE - 10
15.11.2018 08:00:00 14,8 11,1 11 6 N 1018,7 10
15.11.2018 07:00:00 15,0 10,0 11 6 N - 10
15.11.2018 06:00:00 15,0 10,0 11 6 NNE - 10
15.11.2018 05:00:00 14,6 9,6 13 7 N 1018,3 10
15.11.2018 04:00:00 15,0 10,0 13 7 N - 10
15.11.2018 03:00:00 15,0 11,0 8 4 NNW - 10
15.11.2018 02:00:00 14,6 10,8 13 7 N 1019,3 10
15.11.2018 01:00:00 14,0 10,0 0 0 N - 10
15.11.2018 00:00:00 14,0 10,0 9 5 NNE - 10
14.11.2018 23:00:00 13,6 11,8 9 5 NNE 1019,5 10
14.11.2018 22:00:00 15,0 11,0 9 5 NNE - 10
14.11.2018 21:00:00 15,0 11,0 9 5 NNE - 10
14.11.2018 20:00:00 14,8 11,1 8 4 NNE 1020,0 10
14.11.2018 19:00:00 15,0 11,0 13 7 NNE - 10
14.11.2018 18:00:00 15,0 11,0 9 5 NNW - 10
14.11.2018 17:00:00 15,2 10,7 13 7 N 1019,8 10
14.11.2018 16:00:00 16,0 10,0 13 7 N - 10
14.11.2018 15:00:00 16,0 10,0 11 6 N - 10
14.11.2018 14:00:00 15,4 10,1 11 6 N 1020,6 10
14.11.2018 13:00:00 17,0 12,0 16 9 NW - 10
14.11.2018 12:00:00 16,0 11,0 13 7 NNW - 10
14.11.2018 11:00:00 15,2 9,0 16 9 NNW 1021,4 10
14.11.2018 10:00:00 15,0 10,0 9 5 NNW - 10
14.11.2018 09:00:00 15,0 10,0 15 8 NNW - 10
14.11.2018 08:00:00 14,6 9,6 16 9 NNW 1021,1 10
14.11.2018 07:00:00 14,0 10,0 18 10 NNW - 10
14.11.2018 06:00:00 15,0 10,0 18 10 NNW - 10
14.11.2018 05:00:00 15,0 9,2 22 12 NNW 1020,6 10
14.11.2018 04:00:00 15,0 10,0 22 12 N - 10
14.11.2018 03:00:00 15,0 11,0 22 12 N - 10
14.11.2018 02:00:00 15,6 10,7 22 12 N 1021,1 10
14.11.2018 01:00:00 16,0 11,0 22 12 NNW - 10
14.11.2018 00:00:00 16,0 11,0 22 12 NNW - 10
13.11.2018 23:00:00 15,8 11,0 26 14 N 1021,8 10
13.11.2018 22:00:00 16,0 11,0 18 10 NNW - 10
13.11.2018 21:00:00 15,0 11,0 18 10 N - 9
13.11.2018 20:00:00 15,8 11,0 16 9 NNW 1022,0 10
13.11.2018 19:00:00 16,0 11,0 18 10 N - 10
13.11.2018 18:00:00 16,0 11,0 21 11 N - 10
13.11.2018 17:00:00 15,6 9,9 21 11 N 1021,3 10
13.11.2018 16:00:00 16,0 10,0 22 12 N - 10
13.11.2018 15:00:00 16,0 10,0 16 9 NNW - 9
13.11.2018 14:00:00 16,4 9,1 22 12 NNW 1022,5 10
13.11.2018 13:00:00 17,0 10,0 18 10 NNW - 10
13.11.2018 12:00:00 17,0 11,0 22 12 NNW - 10
13.11.2018 11:00:00 17,0 11,5 22 12 N 1023,5 10
13.11.2018 10:00:00 17,0 12,0 22 12 NNE - 10
13.11.2018 09:00:00 16,0 11,0 15 8 N - 10
13.11.2018 08:00:00 15,8 11,8 15 8 N 1023,4 10
13.11.2018 07:00:00 16,0 13,0 22 12 NNE - 10
13.11.2018 06:00:00 16,0 13,0 26 14 N - 10
13.11.2018 05:00:00 16,2 11,8 18 10 NNE 1022,7 10
13.11.2018 04:00:00 16,0 12,0 18 10 NNE - 10
13.11.2018 03:00:00 16,0 12,0 11 6 N - 10
13.11.2018 02:00:00 16,4 12,1 18 10 NNE 1023,3 10
13.11.2018 01:00:00 16,0 12,0 15 8 NNE - 10
13.11.2018 00:00:00 16,0 12,0 15 8 NE - 10
12.11.2018 23:00:00 16,0 12,0 11 6 NNE 1023,9 10
12.11.2018 22:00:00 17,0 15,0 11 6 NE - 10
12.11.2018 21:00:00 17,0 15,0 11 6 NE - 10
12.11.2018 20:00:00 16,2 14,8 0 0 N 1023,6 10
12.11.2018 19:00:00 17,0 14,0 0 0 N - 10
12.11.2018 18:00:00 17,0 15,0 0 0 N - 10
12.11.2018 17:00:00 17,2 14,1 8 4 NNE 1023,4 10
12.11.2018 16:00:00 18,0 13,0 15 8 NE - 10
12.11.2018 15:00:00 18,0 14,0 11 6 NE - 10
12.11.2018 14:00:00 18,0 14,2 8 4 E 1023,5 10
12.11.2018 13:00:00 18,0 14,0 15 8 NE - 10
12.11.2018 12:00:00 18,0 14,0 18 10 NE - 10
12.11.2018 11:00:00 17,8 14,0 15 8 ENE 1023,9 10
12.11.2018 10:00:00 18,0 14,0 15 8 NE - 10
12.11.2018 09:00:00 18,0 14,0 11 6 NE - 10
12.11.2018 08:00:00 16,6 13,0 11 6 NE 1023,3 10
12.11.2018 07:00:00 16,0 14,0 8 4 E - 10
12.11.2018 06:00:00 16,0 14,0 0 0 N - 10
12.11.2018 05:00:00 16,2 14,1 13 7 E 1022,3 10
12.11.2018 04:00:00 17,0 14,0 8 4 ENE - 10
12.11.2018 03:00:00 17,0 14,0 16 9 ENE - 10
12.11.2018 02:00:00 16,8 14,4 16 9 E 1022,3 10
12.11.2018 01:00:00 17,0 15,0 13 7 E - 10
12.11.2018 00:00:00 16,0 14,0 0 0 N - 10
11.11.2018 23:00:00 15,4 14,0 0 0 N 1022,3 10
11.11.2018 22:00:00 17,0 14,0 0 0 N - 10
11.11.2018 21:00:00 17,0 14,0 8 4 E - 10
11.11.2018 20:00:00 16,6 14,2 11 6 E 1021,1 10
11.11.2018 19:00:00 17,0 15,0 11 6 ENE - 10
11.11.2018 18:00:00 17,0 15,0 11 6 E - 10
11.11.2018 17:00:00 17,4 15,4 11 6 E 1019,8 10
11.11.2018 16:00:00 - - - - - - -
11.11.2018 15:00:00 18,0 16,0 11 6 ENE - 10
11.11.2018 14:00:00 18,2 15,5 11 6 E 1019,6 10
11.11.2018 13:00:00 18,0 15,0 13 7 E - 10
11.11.2018 12:00:00 18,0 15,0 15 8 ENE - 10
11.11.2018 11:00:00 16,8 15,4 13 7 E 1019,9 10
11.11.2018 10:00:00 16,0 15,0 0 0 N - 10
11.11.2018 09:00:00 16,0 15,0 5 3 SSE - 10
11.11.2018 08:00:00 15,6 15,3 8 4 SE 1019,1 8
11.11.2018 07:00:00 16,0 15,0 8 4 E - 10
11.11.2018 06:00:00 16,0 15,0 9 5 NE - 10
11.11.2018 05:00:00 15,6 14,9 9 5 E 1017,5 10
11.11.2018 04:00:00 16,0 15,0 9 5 SE - 10
11.11.2018 03:00:00 16,0 15,0 8 4 ESE - 9
11.11.2018 02:00:00 15,2 14,8 0 0 N 1017,4 9
11.11.2018 01:00:00 15,0 15,0 0 0 N - 10
11.11.2018 00:00:00 15,0 15,0 11 6 SE - 6
10.11.2018 23:00:00 14,8 14,4 0 0 N 1017,3 10
10.11.2018 22:00:00 16,0 14,0 0 0 N - 10
10.11.2018 21:00:00 15,0 14,0 0 0 N - 10
10.11.2018 20:00:00 15,2 14,5 0 0 N 1017,3 10
10.11.2018 19:00:00 16,0 15,0 0 0 N - 10
10.11.2018 18:00:00 16,0 15,0 0 0 N - 10
10.11.2018 17:00:00 17,2 15,5 0 0 N 1016,5 10
10.11.2018 16:00:00 17,0 16,0 0 0 N - 10
10.11.2018 15:00:00 17,0 15,0 0 0 N - 10
10.11.2018 14:00:00 17,6 15,2 9 5 E 1016,6 10
10.11.2018 13:00:00 17,0 15,0 0 0 N - 10
10.11.2018 12:00:00 17,0 15,0 0 0 N - 9

tt = temperature
td = dewpoint
ff = wind speed
dd = wind direction
ppp = reduced air pressure
vv = visibility

Next stations